When you browse on this site, cookies collect data to enhance your experience and personalize the content and advertising you see.
Visit our Privacy Policy to learn more. By continuing to use the site, you agree to this use of cookies and data.
  • In Hungary
  • List of Countries
  • For 7 days
  • Water Temperature
  • Satellite Maps
  • Weather Map
  • News
  • Weather Widgets
  • user-avatar
    Login

    Hourly Weather Olot

    Today, 21 November, Wednesday

    Time Temperature Precipitation Wind Pressure Humidity
    00:00 +6°C° 0 mm 2 mps 713 mmHg 93%
    01:00 +6°C° 0 mm 2 mps 713 mmHg 92%
    02:00 +6°C° 0 mm 2 mps 713 mmHg 90%
    03:00 +6°C° 0 mm 1 mps 714 mmHg 88%
    04:00 +6°C° 0 mm 1 mps 714 mmHg 88%
    05:00 +6°C° 0 mm 1 mps 715 mmHg 88%
    06:00 +6°C° 0 mm 1 mps 715 mmHg 87%
    07:00 +7°C° 0 mm 1 mps 716 mmHg 83%
    08:00 +9°C° 0 mm 1 mps 716 mmHg 79%
    09:00 +10°C° 0 mm 1 mps 717 mmHg 75%
    10:00 +11°C° 0 mm 1 mps 717 mmHg 71%
    11:00 +12°C° 0 mm 2 mps 717 mmHg 68%
    12:00 +13°C° 0 mm 2 mps 718 mmHg 65%
    13:00 +13°C° 0 mm 2 mps 718 mmHg 66%
    14:00 +13°C° 0 mm 2 mps 718 mmHg 68%
    15:00 +13°C° 0 mm 2 mps 718 mmHg 69%
    16:00 +10°C° 0 mm 2 mps 718 mmHg 76%
    17:00 +9°C° 0 mm 2 mps 719 mmHg 84%
    18:00 +7°C° 0 mm 2 mps 719 mmHg 91%
    19:00 +7°C° 0 mm 2 mps 720 mmHg 90%
    20:00 +7°C° 0 mm 2 mps 720 mmHg 89%
    21:00 +6°C° 0 mm 2 mps 720 mmHg 88%
    22:00 +6°C° 0 mm 2 mps 721 mmHg 86%
    23:00 +6°C° 0 mm 2 mps 721 mmHg 85%

    Tomorrow, 22 November, Thursday

    Time Temperature Precipitation Wind Pressure Humidity
    00:00 +6°C° 0 mm 2 mps 721 mmHg 83%
    01:00 +6°C° 0 mm 2 mps 721 mmHg 82%
    02:00 +6°C° 0 mm 2 mps 721 mmHg 81%
    03:00 +6°C° 0 mm 2 mps 721 mmHg 80%
    04:00 +6°C° 0 mm 2 mps 721 mmHg 79%
    05:00 +6°C° 0 mm 2 mps 721 mmHg 78%
    06:00 +7°C° 0 mm 1 mps 721 mmHg 77%
    07:00 +8°C° 0 mm 1 mps 721 mmHg 73%
    08:00 +9°C° 0 mm 1 mps 722 mmHg 69%
    09:00 +10°C° 0 mm 2 mps 722 mmHg 65%
    10:00 +12°C° 0 mm 2 mps 722 mmHg 60%
    11:00 +13°C° 0 mm 2 mps 722 mmHg 56%
    12:00 +13°C° 0 mm 3 mps 722 mmHg 51%
    13:00 +13°C° 0 mm 3 mps 722 mmHg 53%
    14:00 +13°C° 0 mm 3 mps 722 mmHg 55%
    15:00 +13°C° 0 mm 3 mps 722 mmHg 57%
    16:00 +12°C° 0 mm 2 mps 722 mmHg 62%
    17:00 +9°C° 0 mm 2 mps 722 mmHg 68%
    18:00 +8°C° 0 mm 2 mps 722 mmHg 73%
    19:00 +7°C° 0 mm 2 mps 722 mmHg 71%
    20:00 +7°C° 0 mm 2 mps 722 mmHg 69%
    21:00 +7°C° 0 mm 2 mps 722 mmHg 67%
    22:00 +7°C° 0 mm 2 mps 722 mmHg 67%
    23:00 +7°C° 0 mm 2 mps 722 mmHg 67%

    Day after tomorrow, 23 November, Friday

    Time Temperature Precipitation Wind Pressure Humidity
    00:00 +8°C° 0 mm 2 mps 722 mmHg 66%
    01:00 +8°C° 0 mm 2 mps 722 mmHg 67%
    02:00 +9°C° 0 mm 1 mps 722 mmHg 68%
    03:00 +9°C° 0 mm 1 mps 721 mmHg 69%
    04:00 +9°C° 0.4 mm 1 mps 721 mmHg 73%
    05:00 +9°C° 0.4 mm 1 mps 721 mmHg 77%
    06:00 +9°C° 0.4 mm 1 mps 721 mmHg 81%
    07:00 +10°C° 0.2 mm 1 mps 721 mmHg 81%
    08:00 +10°C° 0.2 mm 1 mps 721 mmHg 80%
    09:00 +11°C° 0.2 mm 1 mps 721 mmHg 80%
    10:00 +12°C° 0.1 mm 1 mps 721 mmHg 77%
    11:00 +13°C° 0.1 mm 1 mps 721 mmHg 74%
    12:00 +14°C° 0.1 mm 1 mps 720 mmHg 71%
    13:00 +13°C° 0 mm 2 mps 720 mmHg 72%
    14:00 +13°C° 0 mm 2 mps 720 mmHg 73%
    15:00 +13°C° 0 mm 2 mps 720 mmHg 74%
    16:00 +12°C° 0 mm 2 mps 720 mmHg 79%
    17:00 +9°C° 0 mm 2 mps 720 mmHg 85%
    18:00 +8°C° 0 mm 2 mps 720 mmHg 90%
    19:00 +8°C° 0 mm 2 mps 721 mmHg 89%
    20:00 +7°C° 0 mm 2 mps 721 mmHg 88%
    21:00 +7°C° 0 mm 2 mps 722 mmHg 88%
    22:00 +7°C° 0 mm 2 mps 722 mmHg 86%
    23:00 +6°C° 0 mm 2 mps 722 mmHg 85%

    24 November, Saturday

    Time Temperature Precipitation Wind Pressure Humidity
    00:00 +6°C° 0 mm 2 mps 722 mmHg 84%
    01:00 +6°C° 0 mm 2 mps 722 mmHg 84%
    02:00 +6°C° 0 mm 2 mps 722 mmHg 83%
    03:00 +7°C° 0 mm 1 mps 722 mmHg 83%
    04:00 +6°C° 0 mm 1 mps 722 mmHg 82%
    05:00 +6°C° 0 mm 1 mps 722 mmHg 80%
    06:00 +6°C° 0 mm 1 mps 722 mmHg 79%
    07:00 +8°C° 0 mm 1 mps 722 mmHg 73%
    08:00 +9°C° 0 mm 1 mps 723 mmHg 67%
    09:00 +10°C° 0 mm 1 mps 723 mmHg 62%
    10:00 +11°C° 0 mm 1 mps 723 mmHg 57%
    11:00 +12°C° 0 mm 2 mps 722 mmHg 53%
    12:00 +13°C° 0 mm 2 mps 722 mmHg 48%
    13:00 +13°C° 0 mm 2 mps 721 mmHg 50%
    14:00 +12°C° 0 mm 3 mps 721 mmHg 51%
    15:00 +12°C° 0 mm 3 mps 720 mmHg 53%
    16:00 +10°C° 0 mm 3 mps 720 mmHg 58%
    17:00 +8°C° 0 mm 3 mps 720 mmHg 64%
    18:00 +7°C° 0 mm 3 mps 720 mmHg 70%
    19:00 +7°C° 0 mm 3 mps 720 mmHg 69%
    20:00 +5°C° 0 mm 3 mps 720 mmHg 69%
    21:00 +5°C° 0 mm 3 mps 720 mmHg 69%
    22:00 +5°C° 0 mm 3 mps 719 mmHg 70%
    23:00 +5°C° 0 mm 3 mps 719 mmHg 71%

    25 November, Sunday

    Time Temperature Precipitation Wind Pressure Humidity
    00:00 +5°C° 0 mm 3 mps 718 mmHg 73%
    01:00 +5°C° 0 mm 3 mps 718 mmHg 74%
    02:00 +5°C° 0 mm 3 mps 717 mmHg 76%
    03:00 +6°C° 0 mm 2 mps 717 mmHg 77%
    04:00 +5°C° 0 mm 3 mps 717 mmHg 77%
    05:00 +5°C° 0 mm 3 mps 716 mmHg 77%
    06:00 +7°C° 0 mm 3 mps 716 mmHg 76%
    07:00 +8°C° 0 mm 3 mps 716 mmHg 75%
    08:00 +9°C° 0 mm 3 mps 717 mmHg 74%
    09:00 +10°C° 0 mm 4 mps 717 mmHg 74%
    10:00 +11°C° 0 mm 3 mps 717 mmHg 71%
    11:00 +12°C° 0 mm 3 mps 717 mmHg 68%
    12:00 +14°C° 0 mm 2 mps 717 mmHg 66%
    13:00 +13°C° 0 mm 2 mps 717 mmHg 68%
    14:00 +13°C° 0 mm 2 mps 716 mmHg 70%
    15:00 +12°C° 0 mm 1 mps 716 mmHg 72%
    16:00 +11°C° 0 mm 1 mps 717 mmHg 77%
    17:00 +10°C° 0 mm 1 mps 717 mmHg 81%
    18:00 +9°C° 0 mm 1 mps 717 mmHg 86%
    19:00 +9°C° 0 mm 1 mps 717 mmHg 87%
    20:00 +9°C° 0 mm 1 mps 717 mmHg 87%
    21:00 +8°C° 0 mm 1 mps 718 mmHg 88%
    22:00 +8°C° 0 mm 1 mps 717 mmHg 88%
    23:00 +8°C° 0 mm 1 mps 717 mmHg 88%

    26 November, Monday

    Time Temperature Precipitation Wind Pressure Humidity
    00:00 +8°C° 0 mm 1 mps 717 mmHg 89%
    01:00 +8°C° 0 mm 1 mps 717 mmHg 88%
    02:00 +8°C° 0 mm 1 mps 717 mmHg 87%
    03:00 +8°C° 0 mm 1 mps 716 mmHg 86%
    04:00 +6°C° 0 mm 2 mps 716 mmHg 84%
    05:00 +6°C° 0 mm 2 mps 716 mmHg 81%
    06:00 +6°C° 0 mm 2 mps 717 mmHg 79%
    07:00 +7°C° 0 mm 2 mps 717 mmHg 75%
    08:00 +8°C° 0 mm 2 mps 718 mmHg 71%
    09:00 +10°C° 0 mm 2 mps 718 mmHg 67%
    10:00 +12°C° 0 mm 2 mps 718 mmHg 63%
    11:00 +13°C° 0 mm 2 mps 719 mmHg 60%
    12:00 +14°C° 0 mm 2 mps 719 mmHg 56%
    13:00 +13°C° 0.1 mm 2 mps 719 mmHg 58%
    14:00 +13°C° 0.1 mm 2 mps 719 mmHg 60%
    15:00 +13°C° 0.1 mm 2 mps 719 mmHg 63%
    16:00 +10°C° 0.3 mm 2 mps 719 mmHg 68%
    17:00 +9°C° 0.3 mm 2 mps 719 mmHg 74%
    18:00 +8°C° 0.3 mm 2 mps 720 mmHg 80%
    19:00 +7°C° 0.1 mm 2 mps 720 mmHg 81%
    20:00 +7°C° 0.1 mm 2 mps 721 mmHg 81%
    21:00 +5°C° 0.1 mm 3 mps 721 mmHg 82%
    22:00 +5°C° 0 mm 3 mps 721 mmHg 81%
    23:00 +4°C° 0 mm 3 mps 722 mmHg 80%
    Show more